Regional Weather Roundup
Issued by NWS

Home | Current Version | Previous Version | Text Only | Print | Product List | Glossary On
Versions: 1 2 3 4 5 6 7 8 9 10 11 12 13 14 15 16 17 18 19 20 21 22 23 24 25 26 27 28 29 30 31 32 33 34 35 36 37 38 39 40 41 42 43 44 45 46 47 48 49 50
000
ASCA44 KEWX 060020
RWRMX

LATIN AMERICA AND CARIBBEAN REGIONAL WEATHER ROUNDUP
NATIONAL WEATHER SERVICE AUSTIN/SAN ANTONIO TX
700 PM CDT THU MAY 05 2016

NOTE: "FAIR" INDICATED FEW OR NO CLOUDS BELOW 12,000 FEET WITH NO
SIGNIFICANT WEATHER AND/OR OBSTRUCTIONS TO VISIBILITY.

BAJA CALIFORNIA

CITY           SKY/WX    TMP DP  RH WIND       PRES   REMARKS
LORETO         MOSUNNY   84  63  48 SE6       29.78F
LA PAZ         PTSUNNY   82  52  34 SW9       29.85F
MEXICALI       BLWGDUST  79  39  24 W20       29.67F VSB 3/4
S.J. DEL CABO  PTSUNNY   84  37  18 SE14      29.84F
TIJUANA        CLOUDY    64  46  52 W14       29.93F

NORTHWESTERN MEXICO

CITY           SKY/WX    TMP DP  RH WIND       PRES   REMARKS
CULIACAN       CLOUDY    90  63  40 SW10      29.88R HX  90
DURANGO        PTSUNNY   86  18   8 W2        30.10F
GUAYMAS        SUNNY     86  54  32 S12       29.76F
HERMOSILLO     SUNNY     95  43  16 S18       29.82S HX  91
CD. JUAREZ     MOSUNNY   90  37  15 E17       29.87F
LOS MOCHIS     CLOUDY    81  54  39 SW9       29.85F
OBREGON        MOSUNNY   90  46  22 SW15      29.79F

NORTHEASTERN MEXICO

CITY           SKY/WX    TMP DP  RH WIND       PRES   REMARKS
CHIHUAHUA      CLOUDY    86  39  19 E17       30.00F
MATAMOROS      MOSUNNY   84  54  34 SE14      29.94F
MONCLOVA       MOSUNNY   90  27  10 NE13      29.93F
MONTERREY      PTSUNNY   88  45  22 E9        29.93F
NUEVO LAREDO   MOSUNNY   93  43  17 NE8       29.95R
PIEDRAS NEGRAS SUNNY     91  52  25 SE5       29.95F
REYNOSA        MOSUNNY   86  41  20 S7        29.92F
SALTILLO       PTSUNNY   73  54  49 N17       30.15F
TORREON        PTSUNNY   90  45  20 CALM      29.98F
CD. VICTORIA   PTSUNNY   88  52  29 CALM      29.95S

WESTERN MEXICO

CITY           SKY/WX    TMP DP  RH WIND       PRES   REMARKS
AGUASCALIENTES MOSUNNY   86  19   8 NW3       30.11S
COLIMA         PTSUNNY   81  66  61 W12       29.90S
DEL BAJIO      PTSUNNY   90  27  10 W14       30.12F
GUADALAJARA    MOSUNNY   91  25   9 NW14      30.02F
MANZANILLO     SUNNY     79  73  83 W9        29.80S
MAZATLAN       PTSUNNY   86  63  45 W8        29.84F
P. VALLARTA    MOSUNNY   81  73  78 SW12      29.85S
URUAPAN        SUNNY     82  63  51 S8        30.07S
ZACATECAS      MOSUNNY   82  25  12 NE17      30.18F

CENTRAL MEXICO

CITY           SKY/WX    TMP DP  RH WIND       PRES   REMARKS
CUERNAVACA     PTSUNNY   86  54  32 CALM      29.96S
MEXICO CITY    MOSUNNY   81  37  21 N12       30.20R
MORELIA        MOSUNNY   88  37  16 N6        30.09F
POZA RICA      CLOUDY    81  63  54 E9        30.00F
PUEBLA         PTSUNNY   75  52  43 S16       30.21R
QUERETARO      PTSUNNY   81  48  32 NE17      30.16S
S. LUIS POTOSI MOSUNNY   79  43  27 NE18      30.14S
TAMPICO        MOSUNNY   79  75  89 SE9       29.98R
TOLUCA         PTSUNNY   72  54  53 S13       30.30R

SOUTHERN MEXICO

CITY           SKY/WX    TMP DP  RH WIND       PRES   REMARKS
ACAPULCO       SUNNY     82  77  83 W12       29.79R HX  91
B. DE HUATULCO PTCLDY    84  70  61 W9        29.86R
OAXACA         CLOUDY    81  55  41 E5        30.09R
P. ESCONDIDO   PTSUNNY   84  79  84 W6        29.91R HX  96
VERACRUZ       CLOUDY    79  68  69 NE9       29.99S
ZIHUATANEJO    MOSUNNY   84  75  74 W7        29.80F HX  92

YUCATAN PENINSULA

CITY           SKY/WX    TMP DP  RH WIND       PRES   REMARKS
CAMPECHE       CLEAR     79  64  61 N17G29    29.89R
CANCUN         PTCLDY    79  61  53 NW9       29.91R
CHETUMAL       PTCLDY    86  73  66 E6        29.84R HX  93
CD. DEL CARMEN PTCLDY    81  64  57 N10       29.94R
COZUMEL        CLEAR     77  63  61 N13       29.88R
MERIDA         PTCLDY    79  57  47 N9        29.93R
MINATITLAN     MOCLDY    79  68  69 N14       29.93S
TAPACHULA      CLOUDY    79  75  89 CALM      29.77R
TUX. GUTIERREZ PTCLDY    81  64  57 NW23      29.90R
VILLAHERMOSA   PTCLDY    81  68  65 N6        29.96R

CENTRAL AMERICA

CITY           SKY/WX    TMP DP  RH WIND       PRES   REMARKS
BELIZE CITY    PTCLDY    84  79  84 E8        29.86R HX  96
MANAGUA        PTCLDY    90  72  55 W9        29.77R HX  96

CARIBBEAN

CITY           SKY/WX    TMP DP  RH WIND       PRES   REMARKS
ARUBA          PTCLDY    84  77  79 E18       29.77S HX  94
CURACAO        PTCLDY    82  77  83 E15       29.80S HX  91
KINGSTON       TSTM      82  77  83 S13       29.80S HX  91
NASSAU         PTCLDY    75  63  64 W3        29.83R
SAN JUAN       PTCLDY    81  75  83 E9        29.93R
SANTO DOMINGO  MOCLDY    81  75  83 NE7       29.86S
ST. CROIX      MOCLDY    82  73  74 E10       29.95R
ST. KITTS      PTCLDY    81  75  83 E12       29.94S
ST. MAARTEN    PTCLDY    81  73  78 E12       29.94S
ST. THOMAS     PTCLDY    82  75  78 E16       29.94R

$$





USA.gov is the U.S. government's official web portal to all federal, state and local government web resources and services.